N8MFN Weather Reports


time (UTC)temp
C
wind
direction
speed
KPH
gust
KPH
rain 1hr
cm
rain 24hr
cm
rain mn
cm
humidity
%
barometer
mb
20260509044017 14 0.0 0.0 0.03 0.05 0.05 88
20260509043017 14 89 0.0 0.0 0.05 0.05 0.05 87
20260509042017 14 0.0 0.0 0.05 0.05 0.05 86
20260509041017 14 88 0.0 0.0 0.05 0.05 0.05 84
20260509040037 14 297 1.6 3.2 0.03 0.03 0.03 82
20260509035018 14 64 0.0 1.6 0.03 0.03 0.03 81
20260509034016 15 64 0.0 1.6 0.03 0.03 0.03 81
20260509033017 15 100 0.0 1.6 0.00 0.00 0.00 80
20260509032037 15 281 1.6 3.2 0.00 0.00 0.00 79
20260509031016 15 16 1.6 3.2 0.00 0.00 0.00 79
20260509030017 15 274 3.2 4.8 0.00 0.00 0.00 78
20260509025036 15 343 1.6 4.8 0.00 0.00 0.00 78
20260509024017 16 300 1.6 4.8 0.00 0.00 0.00 78
20260509023036 16 327 1.6 4.8 0.00 0.00 0.00 77
20260509022016 16 6 1.6 3.2 0.00 0.00 0.00 75
20260509021017 15 297 4.8 8.0 0.00 0.00 0.00 78
20260509020016 16 13 0.0 1.6 0.00 0.00 0.00 76
20260509015017 16 134 0.0 0.0 0.00 0.00 0.00 75
20260509014018 16 89 0.0 0.0 0.00 0.00 0.00 74
20260509013016 18 53 1.6 3.2 0.00 0.00 0.00 71
20260509012037 16 60 1.6 3.2 0.00 0.00 0.00 78
20260509011017 16 10 1.6 3.2 0.00 0.00 0.00 77
20260509010017 16 356 1.6 4.8 0.00 0.00 0.00 77
20260509005017 16 296 3.2 6.4 0.00 0.00 0.00 76
20260509004017 16 13 1.6 4.8 0.00 0.00 0.00 76
20260509003017 17 88 0.0 0.0 0.00 0.00 0.00 75
20260509002037 17 175 0.0 0.0 0.00 0.00 0.00 74
20260509001017 17 134 0.0 0.0 0.00 0.00 0.00 73
20260509000017 17 0.0 0.0 0.00 0.00 0.00 73
20260508235016 17 0.0 0.0 0.00 0.00 0.00 73
20260508234017 18 0.0 0.0 0.00 0.00 0.00 73
20260508233018 18 0.0 0.0 0.00 0.00 0.00 72
20260508232016 18 89 0.0 1.6 0.00 0.00 0.00 71
20260508231017 19 179 0.0 0.0 0.00 0.00 0.00 70
20260508230017 20 89 0.0 0.0 0.00 0.00 0.00 69
20260508225017 20 89 0.0 0.0 0.00 0.00 0.00 69
20260508224017 21 178 0.0 1.6 0.00 0.00 0.00 69
20260508223016 21 282 1.6 4.8 0.00 0.00 0.00 69
20260508222017 21 197 0.0 1.6 0.00 0.00 0.00 68
20260508221037 21 196 1.6 3.2 0.00 0.00 0.00 68
20260508220017 21 186 1.6 4.8 0.00 0.00 0.00 67
20260508215017 21 190 3.2 4.8 0.00 0.00 0.00 67
20260508214016 22 192 3.2 8.0 0.00 0.00 0.00 66
20260508213017 22 190 3.2 6.4 0.00 0.00 0.00 66
20260508212018 22 182 3.2 6.4 0.00 0.00 0.00 66
20260508211016 22 190 4.8 9.7 0.00 0.00 0.00 66
20260508210017 22 176 3.2 6.4 0.00 0.00 0.00 66
20260508205016 22 181 3.2 6.4 0.00 0.00 0.00 66
20260508204017 22 177 3.2 8.0 0.00 0.00 0.00 65
20260508203017 22 203 3.2 8.0 0.00 0.00 0.00 65
20260508202016 23 182 4.8 8.0 0.00 0.00 0.00 64
20260508201017 23 206 1.6 4.8 0.00 0.00 0.00 64
20260508200017 23 196 3.2 8.0 0.00 0.00 0.00 63
20260508195017 23 196 3.2 6.4 0.00 0.00 0.00 62
20260508194017 22 198 4.8 6.4 0.00 0.00 0.00 64
20260508193037 23 185 8.0 19.3 0.00 0.00 0.00 63
20260508192017 24 193 6.4 11.3 0.00 0.00 0.00 62
20260508191018 26 186 8.0 17.7 0.00 0.00 0.00 60
20260508190037 27 192 6.4 12.9 0.00 0.00 0.00 61
20260508185017 28 182 6.4 14.5 0.00 0.00 0.00 62
20260508184016 28 202 4.8 8.0 0.00 0.00 0.00 64
20260508183017 26 195 6.4 16.1 0.00 0.00 0.00 65
20260508182017 26 183 6.4 11.3 0.00 0.00 0.00 64
20260508181017 26 190 6.4 16.1 0.00 0.00 0.00 65
20260508180017 25 204 6.4 16.1 0.00 0.00 0.00 65
20260508175016 25 193 4.8 17.7 0.00 0.00 0.00 68
20260508174017 24 193 4.8 11.3 0.00 0.00 0.00 69
20260508173017 23 210 4.8 9.7 0.00 0.00 0.00 68
20260508172017 24 192 4.8 9.7 0.00 0.00 0.00 61
20260508171017 24 188 6.4 16.1 0.00 0.00 0.00 65
20260508170017 24 188 6.4 12.9 0.00 0.00 0.00 67
20260508165017 24 206 4.8 9.7 0.00 0.00 0.00 67
20260508164016 23 200 6.4 14.5 0.00 0.00 0.00 69
20260508163017 23 190 6.4 17.7 0.00 0.00 0.00 69
20260508162017 22 191 6.4 14.5 0.00 0.00 0.00 70
20260508161016 22 184 8.0 16.1 0.00 0.00 0.00 69
20260508160017 22 177 6.4 16.1 0.00 0.00 0.00 70
20260508155017 22 197 6.4 11.3 0.00 0.00 0.00 70
20260508154016 22 189 6.4 14.5 0.00 0.00 0.00 70
20260508153057 23 211 4.8 11.3 0.00 0.00 0.00 70
20260508152037 22 181 6.4 12.9 0.00 0.00 0.00 72
20260508151017 22 198 6.4 9.7 0.00 0.00 0.00 71
20260508150017 22 194 4.8 12.9 0.00 0.00 0.00 72
20260508145017 21 189 4.8 12.9 0.00 0.00 0.00 74
20260508144017 21 227 3.2 8.0 0.00 0.00 0.00 73
20260508143017 20 188 4.8 9.7 0.00 0.00 0.00 74
20260508142036 19 192 4.8 9.7 0.00 0.00 0.00 78
20260508141017 16 191 4.8 9.7 0.00 0.00 0.00 82
20260508140037 15 188 6.4 12.9 0.00 0.00 0.00 81
20260508135017 15 218 4.8 8.0 0.00 0.00 0.00 81
20260508134016 14 204 4.8 11.3 0.00 0.00 0.00 83
20260508133016 13 187 4.8 9.7 0.00 0.00 0.00 83
20260508132017 13 188 4.8 11.3 0.00 0.00 0.00 83
20260508131017 13 187 8.0 12.9 0.00 0.00 0.00 83
20260508130037 12 188 4.8 9.7 0.00 0.00 0.00 84
20260508125037 12 195 3.2 6.4 0.00 0.00 0.00 85
20260508124017 11 180 3.2 6.4 0.00 0.00 0.00 86
20260508123017 11 183 3.2 6.4 0.00 0.00 0.00 85
20260508122017 10 174 3.2 8.0 0.00 0.00 0.00 85
20260508121016 10 184 1.6 6.4 0.00 0.00 0.00 84
20260508120017 10 177 3.2 6.4 0.00 0.00 0.00 82
20260508115016 10 177 1.6 4.8 0.00 0.00 0.00 80
20260508114017 10 135 0.0 1.6 0.00 0.00 0.00 81
20260508113017 10 161 0.0 1.6 0.00 0.00 0.00 81
20260508112057 10 167 0.0 1.6 0.00 0.00 0.00 82
20260508111017 9 171 0.0 1.6 0.00 0.00 0.00 84
20260508110016 9 146 0.0 1.6 0.00 0.00 0.00 84
20260508105016 9 0.0 0.0 0.00 0.00 0.00 84
20260508104037 9 166 0.0 1.6 0.00 0.00 0.00 84
20260508103018 9 111 0.0 1.6 0.00 0.00 0.00 84
20260508102017 9 152 0.0 1.6 0.00 0.00 0.00 84
20260508101037 9 134 0.0 0.0 0.00 0.00 0.00 84
20260508100017 9 112 0.0 0.0 0.00 0.00 0.00 84
20260508095017 9 173 1.6 1.6 0.00 0.00 0.00 84
20260508094017 8 178 0.0 1.6 0.00 0.00 0.00 84
20260508093016 8 174 0.0 1.6 0.00 0.00 0.00 84
20260508092057 8 172 0.0 1.6 0.00 0.00 0.00 84
20260508091017 8 178 1.6 1.6 0.00 0.00 0.00 84
20260508090017 8 178 0.0 1.6 0.00 0.00 0.00 84
20260508085057 7 177 0.0 1.6 0.00 0.00 0.00 84
20260508084037 7 52 0.0 1.6 0.00 0.00 0.00 84
20260508083017 7 88 0.0 1.6 0.00 0.00 0.00 85
20260508082018 7 89 0.0 1.6 0.00 0.00 0.00 84
20260508081017 7 134 0.0 0.0 0.00 0.00 0.00 84
20260508080017 7 134 0.0 1.6 0.00 0.00 0.00 83
20260508075017 7 134 0.0 1.6 0.00 0.00 0.00 83
20260508074017 7 134 0.0 0.0 0.00 0.00 0.00 83
20260508073017 7 134 0.0 0.0 0.00 0.00 0.00 82
20260508072016 7 134 0.0 0.0 0.00 0.00 0.00 82
20260508071017 7 134 0.0 0.0 0.00 0.00 0.00 81
20260508070017 8 134 0.0 0.0 0.00 0.00 0.00 81
20260508065016 8 162 0.0 3.2 0.00 0.00 0.00 80
20260508064017 8 148 0.0 1.6 0.00 0.00 0.00 81
20260508063016 8 162 1.6 3.2 0.00 0.00 0.00 83
20260508062017 8 145 0.0 3.2 0.00 0.00 0.00 83
20260508061018 8 168 1.6 3.2 0.00 0.00 0.00 83
20260508060037 8 163 0.0 3.2 0.00 0.00 0.00 82
20260508055017 8 175 1.6 3.2 0.00 0.00 0.00 83
20260508054057 8 176 1.6 4.8 0.00 0.00 0.00 82
20260508053016 8 175 1.6 3.2 0.00 0.00 0.00 82
20260508052037 8 168 1.6 3.2 0.00 0.00 0.00 82
20260508051017 8 167 1.6 3.2 0.00 0.00 0.00 81
20260508050017 8 172 1.6 3.2 0.00 0.00 0.00 81
20260508045017 8 172 1.6 3.2 0.00 0.00 0.00 81